Terminal Aerodrome Forecast
Issued by NWS Tiyan, Guam

Home | Current Version | Previous Version | Text Only | Print | Product List | Glossary On
Versions: 1 2 3 4 5 6 7 8 9 10 11 12 13 14 15 16 17 18 19 20 21 22 23 24 25 26 27 28
252
FTPQ31 PGUM 232335
TAFGUM
TAF
PGUM 232335Z 2400/2506 05016G22KT P6SM VCSH SCT022 SCT060
     FM240900 06010KT P6SM VCSH SCT020=

USA.gov is the U.S. government's official web portal to all federal, state and local government web resources and services.